User: anonymous   Login
Location: Unspecified
(0.0000°N, 0.0000°E)
Time: 23:06:23
(UTC+01:00)
Language:

Delta 168 - Orbit

View from above orbital plane
View from above orbital plane
View from above satellite
View from above satellite

Ground track
Ground track

The orbit data is extracted from the following two-line orbital elements,

1 14051U 83041B   17080.95951990 +.00001530 +00000-0 +13030-3 0  9999
2 14051 025.3311 061.0116 1098757 062.7148 308.0934 13.08175001567010
Epoch (UTC): 21 March 2017 23:01:42
Eccentricity: 0.1098757
inclination: 25.3311°
perigee height: 394 km
apogee height: 2066 km
right ascension of ascending node: 61.0116°
argument of perigee: 62.7148°
revolutions per day: 13.08175001
mean anomaly at epoch: 308.0934°
orbit number at epoch: 56701

The dashed part of the orbit path shows where the satellite is in the earth's shadow,  

DLR